THA676 VTBS-RJAA

Flight info

Callsign THA676
Flight time N/A
Altitude 35000
Route LIPLI Y16 BUTRA A1 PAPRA/K0891F350 A1 TANNA/K0896F370 A1 IKELA/N0481F370 DCT MORTU DCT NOBAD DCT KAPLI G86 HCN J7 PICHU Q13 IGURI Y57 SHIBKI/N0474F390 Y57 YULIA Y89 GUPER Y81 RUTAS
Aircraft B77W/M-SDE1E2E3FGHIJ2J3J4J5M1RWXY/LB1D1

Departure

Time 2026-04-30 11:49
Airport Suvarnabhumi Airport (VTBS)

Arrival

Time N/A
Airport Narita International Airport (RJAA)
Time Latitude Longitude Altitude Speed Heading
2026-04-30 11:19 13.69051 100.75137 18 ft 0 kts 14°
2026-04-30 11:39 13.69032 100.75131 19 ft 4 kts 21°
2026-04-30 11:39 13.69008 100.75119 19 ft 4 kts 36°
2026-04-30 11:39 13.68989 100.75101 21 ft 4 kts 61°
2026-04-30 11:39 13.68983 100.75077 22 ft 2 kts 103°
2026-04-30 11:40 13.68983 100.75075 22 ft 0 kts 104°
2026-04-30 11:42 13.68982 100.75079 22 ft 3 kts 104°
2026-04-30 11:43 13.68963 100.75155 18 ft 14 kts 104°
2026-04-30 11:43 13.68924 100.75214 18 ft 7 kts 171°
2026-04-30 11:43 13.68874 100.75206 18 ft 8 kts 193°
2026-04-30 11:43 13.68817 100.75191 18 ft 8 kts 194°
2026-04-30 11:44 13.68760 100.75176 18 ft 8 kts 194°
2026-04-30 11:44 13.68704 100.75162 18 ft 8 kts 194°
2026-04-30 11:44 13.68647 100.75147 18 ft 8 kts 194°
2026-04-30 11:44 13.68594 100.75162 18 ft 8 kts 137°
2026-04-30 11:45 13.68563 100.75226 18 ft 13 kts 106°
2026-04-30 11:45 13.68534 100.75340 18 ft 20 kts 104°
2026-04-30 11:45 13.68494 100.75497 18 ft 25 kts 104°
2026-04-30 11:45 13.68455 100.75650 18 ft 16 kts 103°
2026-04-30 11:46 13.68509 100.75738 18 ft 16 kts 20°
2026-04-30 11:46 13.68616 100.75767 20 ft 16 kts 14°
2026-04-30 11:46 13.68726 100.75797 18 ft 16 kts 14°
2026-04-30 11:46 13.68836 100.75825 18 ft 16 kts 14°
2026-04-30 11:47 13.68945 100.75855 18 ft 16 kts 15°
2026-04-30 11:47 13.69055 100.75884 18 ft 16 kts 14°
2026-04-30 11:47 13.69160 100.75911 18 ft 12 kts 14°
2026-04-30 11:47 13.69199 100.75977 17 ft 12 kts 95°
2026-04-30 11:48 13.69162 100.76057 17 ft 13 kts 139°
2026-04-30 11:48 13.69073 100.76074 17 ft 16 kts 192°
2026-04-30 11:48 13.68875 100.76022 20 ft 49 kts 194°
2026-04-30 11:48 13.68273 100.75864 18 ft 132 kts 193°
2026-04-30 11:49 13.67129 100.75567 23 ft 204 kts 194°
2026-04-30 11:49 13.65697 100.75168 583 ft 217 kts 195°
2026-04-30 11:49 13.64331 100.74915 1698 ft 192 kts 179°
2026-04-30 11:49 13.63021 100.75024 2318 ft 194 kts 175°
2026-04-30 11:50 13.61586 100.75110 2532 ft 218 kts 176°
2026-04-30 11:50 13.60009 100.75254 2703 ft 242 kts 165°
2026-04-30 11:50 13.58524 100.76167 3079 ft 257 kts 130°
2026-04-30 11:50 13.57770 100.77810 3873 ft 258 kts 98°
2026-04-30 11:51 13.57942 100.79637 4666 ft 258 kts 80°
2026-04-30 11:51 13.57889 100.81476 5135 ft 265 kts 113°
2026-04-30 11:51 13.56872 100.83057 5701 ft 269 kts 127°
2026-04-30 11:51 13.56153 100.84833 6228 ft 277 kts 94°
2026-04-30 11:52 13.56457 100.86776 6928 ft 277 kts 76°
2026-04-30 11:52 13.56879 100.88702 7470 ft 284 kts 83°
2026-04-30 11:52 13.57068 100.90756 8000 ft 287 kts 88°
2026-04-30 11:52 13.57170 100.92797 8633 ft 291 kts 89°
2026-04-30 11:53 13.57214 100.94888 9375 ft 294 kts 90°
2026-04-30 11:53 13.57218 100.97000 10038 ft 298 kts 91°
2026-04-30 11:53 13.57205 100.99167 10501 ft 312 kts 92°
2026-04-30 11:53 13.57191 101.01484 10653 ft 334 kts 89°
2026-04-30 11:54 13.57681 101.03885 10790 ft 358 kts 65°
2026-04-30 11:54 13.59008 101.06121 10962 ft 377 kts 57°
2026-04-30 11:54 13.60501 101.08387 11466 ft 387 kts 57°
2026-04-30 11:54 13.62033 101.10692 12147 ft 395 kts 56°
2026-04-30 11:55 13.63593 101.13048 12916 ft 401 kts 57°
2026-04-30 11:55 13.65163 101.15435 13691 ft 405 kts 57°
2026-04-30 11:55 13.66741 101.17850 14386 ft 409 kts 57°
2026-04-30 11:55 13.68331 101.20297 15108 ft 412 kts 57°
2026-04-30 11:56 13.69927 101.22760 15787 ft 417 kts 57°
2026-04-30 11:56 13.71542 101.25258 16458 ft 421 kts 57°
2026-04-30 11:56 13.73169 101.27779 17125 ft 425 kts 57°
2026-04-30 11:56 13.74815 101.30330 17781 ft 430 kts 57°
2026-04-30 11:57 13.76474 101.32903 18387 ft 434 kts 57°
2026-04-30 11:57 13.78149 101.35500 18974 ft 437 kts 57°
2026-04-30 11:57 13.79835 101.38117 19533 ft 440 kts 57°
2026-04-30 11:57 13.81533 101.40751 20085 ft 445 kts 57°
2026-04-30 11:58 13.83251 101.43417 20622 ft 448 kts 57°
2026-04-30 11:58 13.84962 101.46073 21141 ft 452 kts 57°
2026-04-30 11:58 13.86725 101.48812 21719 ft 455 kts 57°
2026-04-30 11:58 13.88481 101.51539 22245 ft 459 kts 57°
2026-04-30 11:59 13.90250 101.54288 22742 ft 463 kts 56°
2026-04-30 11:59 13.92012 101.57028 23233 ft 466 kts 56°
2026-04-30 11:59 13.93835 101.59862 23682 ft 470 kts 56°
2026-04-30 11:59 13.95620 101.62639 24084 ft 473 kts 56°
2026-04-30 12:00 13.97442 101.65474 24521 ft 476 kts 56°
2026-04-30 12:00 13.99272 101.68323 24939 ft 478 kts 56°
2026-04-30 12:00 14.01114 101.71192 25327 ft 482 kts 56°
2026-04-30 12:00 14.02966 101.74076 25694 ft 485 kts 56°
2026-04-30 12:01 14.04836 101.76990 26063 ft 488 kts 56°
2026-04-30 12:01 14.06717 101.79923 26435 ft 491 kts 56°
2026-04-30 12:01 14.08606 101.82869 26802 ft 494 kts 56°
2026-04-30 12:01 14.10505 101.85831 27168 ft 497 kts 56°
2026-04-30 12:02 14.12419 101.88819 27524 ft 500 kts 56°
2026-04-30 12:02 14.14336 101.91811 27866 ft 503 kts 56°
2026-04-30 12:02 14.16268 101.94829 28199 ft 506 kts 56°
2026-04-30 12:02 14.18052 101.97964 28498 ft 510 kts 65°
2026-04-30 12:03 14.19295 102.01394 28809 ft 513 kts 71°
2026-04-30 12:03 14.21350 102.08463 29507 ft 515 kts 73°
2026-04-30 12:03 14.22368 102.11996 29953 ft 514 kts 72°
2026-04-30 12:04 14.23420 102.15512 30353 ft 514 kts 71°
2026-04-30 12:04 14.24502 102.19007 30723 ft 514 kts 71°
2026-04-30 12:04 14.25608 102.22509 31074 ft 514 kts 71°
2026-04-30 12:04 14.26722 102.26003 31419 ft 514 kts 71°
2026-04-30 12:05 14.27837 102.29499 31770 ft 514 kts 71°
2026-04-30 12:05 14.28952 102.33001 32153 ft 514 kts 71°
2026-04-30 12:05 14.30064 102.36506 32503 ft 514 kts 71°
2026-04-30 12:05 14.31175 102.40015 32848 ft 514 kts 71°
2026-04-30 12:06 14.32281 102.43518 33207 ft 514 kts 71°
2026-04-30 12:06 14.33390 102.47029 33561 ft 514 kts 71°
2026-04-30 12:06 14.34481 102.50490 33910 ft 514 kts 71°
2026-04-30 12:06 14.35589 102.54001 34225 ft 514 kts 71°
2026-04-30 12:07 14.36692 102.57500 34558 ft 512 kts 71°
2026-04-30 12:07 14.37791 102.60987 34903 ft 511 kts 71°
2026-04-30 12:07 14.38952 102.64474 34895 ft 514 kts 69°
2026-04-30 12:08 14.41461 102.71351 34896 ft 509 kts 68°
2026-04-30 12:08 14.43988 102.78156 34900 ft 507 kts 68°
2026-04-30 12:09 14.46465 102.84944 34900 ft 506 kts 69°
2026-04-30 12:09 14.48920 102.91757 34897 ft 506 kts 69°
2026-04-30 12:10 14.51370 102.98574 34902 ft 507 kts 69°
2026-04-30 12:10 14.53820 103.05392 34902 ft 508 kts 69°
2026-04-30 12:11 14.56277 103.12232 34900 ft 509 kts 69°
2026-04-30 12:11 14.58724 103.19049 34896 ft 510 kts 69°
2026-04-30 12:12 14.61184 103.25912 34902 ft 511 kts 69°
2026-04-30 12:12 14.63649 103.32795 34898 ft 511 kts 69°
2026-04-30 12:13 14.66117 103.39693 34901 ft 512 kts 69°
2026-04-30 12:13 14.68582 103.46591 34901 ft 513 kts 69°
2026-04-30 12:14 14.71052 103.53509 34898 ft 513 kts 69°
2026-04-30 12:14 14.73104 103.59262 34901 ft 514 kts 68°
2026-04-30 12:15 14.75571 103.66186 34900 ft 514 kts 68°
2026-04-30 12:15 14.78041 103.73125 34901 ft 514 kts 68°
2026-04-30 12:16 14.80510 103.80072 34904 ft 514 kts 69°
2026-04-30 12:16 14.82932 103.87027 34898 ft 515 kts 69°
2026-04-30 12:17 14.86534 103.97497 34903 ft 515 kts 69°
2026-04-30 12:17 14.88940 104.04478 34895 ft 515 kts 69°
2026-04-30 12:18 14.91345 104.11455 34898 ft 515 kts 69°
2026-04-30 12:18 14.93737 104.18397 34896 ft 516 kts 69°
2026-04-30 12:19 14.96142 104.25385 34897 ft 516 kts 69°
2026-04-30 12:19 14.98547 104.32382 34896 ft 517 kts 69°
2026-04-30 12:20 15.00951 104.39385 34892 ft 517 kts 69°
2026-04-30 12:20 15.03358 104.46405 34892 ft 518 kts 69°
2026-04-30 12:21 15.05721 104.53303 34894 ft 518 kts 69°
2026-04-30 12:21 15.08158 104.60424 34888 ft 519 kts 69°
2026-04-30 12:22 15.10565 104.67467 34886 ft 519 kts 69°
2026-04-30 12:22 15.12972 104.74518 34886 ft 520 kts 69°
2026-04-30 12:23 15.15379 104.81575 34885 ft 520 kts 69°
2026-04-30 12:23 15.17784 104.88638 34884 ft 520 kts 69°
2026-04-30 12:24 15.20189 104.95708 34886 ft 520 kts 69°
2026-04-30 12:24 15.22592 105.02779 34884 ft 520 kts 69°
2026-04-30 12:25 15.24993 105.09852 34884 ft 520 kts 69°
2026-04-30 12:25 15.27392 105.16927 34887 ft 520 kts 69°
2026-04-30 12:26 15.29771 105.23951 34887 ft 521 kts 69°
2026-04-30 12:26 15.32165 105.31028 34888 ft 521 kts 69°
2026-04-30 12:27 15.34557 105.38110 34889 ft 521 kts 69°
2026-04-30 12:27 15.36950 105.45200 34890 ft 521 kts 69°
2026-04-30 12:28 15.39341 105.52293 34890 ft 521 kts 69°
2026-04-30 12:28 15.41712 105.59398 34894 ft 522 kts 71°
2026-04-30 12:29 15.43492 105.66696 34899 ft 523 kts 76°
2026-04-30 12:29 15.45077 105.74061 34886 ft 524 kts 76°
2026-04-30 12:30 15.46675 105.81424 34898 ft 523 kts 76°
2026-04-30 12:30 15.48305 105.88787 34905 ft 524 kts 75°
2026-04-30 12:31 15.49945 105.96148 34910 ft 524 kts 75°
2026-04-30 12:31 15.51582 106.03509 34910 ft 524 kts 75°
2026-04-30 12:32 15.53205 106.10833 34917 ft 524 kts 75°
2026-04-30 12:32 15.54833 106.18198 34922 ft 524 kts 75°
2026-04-30 12:33 15.56458 106.25561 34922 ft 524 kts 75°
2026-04-30 12:33 15.58079 106.32915 34927 ft 523 kts 75°
2026-04-30 12:34 15.59698 106.40272 34922 ft 523 kts 75°
2026-04-30 12:34 15.61312 106.47617 34928 ft 522 kts 75°
2026-04-30 12:35 15.62921 106.54962 34906 ft 522 kts 75°
2026-04-30 12:35 15.64527 106.62293 34929 ft 521 kts 75°
2026-04-30 12:36 15.66127 106.69613 34941 ft 520 kts 75°
2026-04-30 12:36 15.67725 106.76938 34939 ft 520 kts 75°
2026-04-30 12:37 15.69318 106.84248 34957 ft 519 kts 76°
2026-04-30 12:37 15.70907 106.91553 34970 ft 519 kts 76°
2026-04-30 12:38 15.72495 106.98868 34987 ft 520 kts 76°
2026-04-30 12:38 15.74082 107.06193 34983 ft 520 kts 76°
2026-04-30 12:39 15.75656 107.13466 35004 ft 520 kts 76°
2026-04-30 12:39 15.77344 107.20759 35011 ft 519 kts 72°
2026-04-30 12:40 15.79402 107.27939 35017 ft 519 kts 71°
2026-04-30 12:40 15.81505 107.35104 35022 ft 519 kts 72°
2026-04-30 12:41 15.83574 107.42280 35023 ft 518 kts 72°
2026-04-30 12:41 15.85623 107.49472 35399 ft 519 kts 72°
2026-04-30 12:42 15.86645 107.53061 35788 ft 517 kts 72°
2026-04-30 12:42 15.87663 107.56638 36091 ft 516 kts 72°
2026-04-30 12:42 15.88673 107.60181 36295 ft 518 kts 72°
2026-04-30 12:42 15.89698 107.63781 36399 ft 521 kts 72°
2026-04-30 12:43 15.90727 107.67410 36527 ft 524 kts 73°
2026-04-30 12:43 15.91736 107.71051 36718 ft 525 kts 73°
2026-04-30 12:43 15.92734 107.74707 36890 ft 526 kts 73°
2026-04-30 12:43 15.93731 107.78373 36934 ft 528 kts 73°
2026-04-30 12:44 15.95745 107.85746 36989 ft 532 kts 73°
2026-04-30 12:44 15.97787 107.93127 36992 ft 531 kts 72°
2026-04-30 12:45 15.99875 108.00500 36988 ft 532 kts 72°
2026-04-30 12:45 16.01955 108.07872 36988 ft 531 kts 73°
2026-04-30 12:46 16.04032 108.15196 36993 ft 530 kts 70°
2026-04-30 12:46 16.06946 108.22202 36999 ft 527 kts 60°
2026-04-30 12:47 16.10860 108.28619 37005 ft 525 kts 53°
2026-04-30 12:47 16.15001 108.34880 36985 ft 525 kts 53°
2026-04-30 12:48 16.19099 108.41160 36981 ft 525 kts 54°
2026-04-30 12:48 16.23165 108.47468 36977 ft 524 kts 54°
2026-04-30 12:49 16.27220 108.53775 36972 ft 524 kts 54°
2026-04-30 12:49 16.31278 108.60085 36974 ft 524 kts 54°
2026-04-30 12:50 16.35332 108.66392 36977 ft 524 kts 54°
2026-04-30 12:50 16.39463 108.72636 36981 ft 524 kts 53°
2026-04-30 12:51 16.43659 108.78847 36981 ft 524 kts 53°
2026-04-30 12:51 16.47833 108.85064 36982 ft 524 kts 53°
2026-04-30 12:52 16.51997 108.91301 36985 ft 524 kts 53°
2026-04-30 12:52 16.56154 108.97528 36988 ft 523 kts 54°
2026-04-30 12:53 16.60251 109.03796 36991 ft 523 kts 54°
2026-04-30 12:53 16.64310 109.10097 36988 ft 523 kts 54°
2026-04-30 12:54 16.68343 109.16346 36988 ft 522 kts 54°
2026-04-30 12:54 16.72405 109.22628 36989 ft 522 kts 54°
2026-04-30 12:55 16.76460 109.28900 36989 ft 522 kts 54°
2026-04-30 12:55 16.80512 109.35176 36989 ft 521 kts 54°
2026-04-30 12:56 16.84564 109.41454 36990 ft 521 kts 54°
2026-04-30 12:56 16.88627 109.47725 36991 ft 521 kts 54°
2026-04-30 12:57 16.92686 109.53987 36991 ft 521 kts 54°
2026-04-30 12:57 16.96743 109.60256 36992 ft 521 kts 54°
2026-04-30 12:58 17.00797 109.66529 36989 ft 521 kts 54°
2026-04-30 12:58 17.04845 109.72801 36991 ft 521 kts 54°
2026-04-30 12:59 17.08895 109.79079 36991 ft 520 kts 54°
2026-04-30 12:59 17.12937 109.85351 36990 ft 520 kts 54°
2026-04-30 13:00 17.16975 109.91624 36992 ft 520 kts 54°
2026-04-30 13:00 17.21016 109.97906 36990 ft 520 kts 54°
2026-04-30 13:01 17.25052 110.04186 36993 ft 520 kts 54°
2026-04-30 13:01 17.29058 110.10424 37003 ft 520 kts 54°
2026-04-30 13:02 17.33091 110.16713 36996 ft 520 kts 54°
2026-04-30 13:02 17.37125 110.23008 36993 ft 521 kts 54°
2026-04-30 13:03 17.41159 110.29308 36992 ft 521 kts 55°
2026-04-30 13:03 17.45218 110.35598 36993 ft 520 kts 54°
2026-04-30 13:04 17.48614 110.40815 36991 ft 520 kts 54°
2026-04-30 13:04 17.53352 110.48097 36986 ft 520 kts 54°
2026-04-30 13:05 17.57419 110.54369 36992 ft 520 kts 54°
2026-04-30 13:06 17.62827 110.62724 36994 ft 520 kts 54°
2026-04-30 13:06 17.66888 110.69006 36996 ft 520 kts 54°
2026-04-30 13:07 17.70948 110.75291 36996 ft 520 kts 54°
2026-04-30 13:07 17.75005 110.81577 36998 ft 520 kts 54°
2026-04-30 13:08 17.79061 110.87867 36999 ft 520 kts 54°
2026-04-30 13:08 17.83117 110.94163 36998 ft 520 kts 54°
2026-04-30 13:09 17.87170 111.00460 37004 ft 520 kts 54°
2026-04-30 13:09 17.91218 111.06756 37003 ft 520 kts 54°
2026-04-30 13:10 17.95266 111.13059 37005 ft 520 kts 54°
2026-04-30 13:10 17.99289 111.19328 37007 ft 521 kts 55°
2026-04-30 13:11 18.03362 111.25680 37003 ft 521 kts 55°
2026-04-30 13:11 18.07407 111.31996 37010 ft 521 kts 55°
2026-04-30 13:12 18.11449 111.38313 37006 ft 521 kts 55°
2026-04-30 13:12 18.15488 111.44631 37011 ft 521 kts 55°
2026-04-30 13:13 18.21551 111.54127 37006 ft 521 kts 55°
2026-04-30 13:14 18.27583 111.63590 37013 ft 521 kts 55°
2026-04-30 13:14 18.33639 111.73103 37018 ft 522 kts 55°
2026-04-30 13:15 18.39695 111.82629 37014 ft 522 kts 55°
2026-04-30 13:16 18.43731 111.88986 37017 ft 522 kts 55°
2026-04-30 13:16 18.47765 111.95348 36998 ft 522 kts 55°
2026-04-30 13:17 18.53809 112.04889 37005 ft 522 kts 55°
2026-04-30 13:18 18.59852 112.14445 37023 ft 522 kts 55°
2026-04-30 13:18 18.65857 112.23972 37028 ft 522 kts 57°
2026-04-30 13:19 18.69389 112.30664 37032 ft 522 kts 62°
2026-04-30 13:19 18.72721 112.37477 37031 ft 523 kts 62°
2026-04-30 13:20 18.76057 112.44287 37014 ft 523 kts 62°
2026-04-30 13:20 18.79423 112.51089 37012 ft 523 kts 62°
2026-04-30 13:21 18.82798 112.57886 37033 ft 523 kts 62°
2026-04-30 13:22 18.87860 112.68094 37030 ft 523 kts 62°
2026-04-30 13:22 18.92913 112.78310 37020 ft 523 kts 62°
2026-04-30 13:23 18.97934 112.88479 37012 ft 523 kts 62°
2026-04-30 13:24 19.04643 113.02095 37015 ft 522 kts 62°
2026-04-30 13:25 19.11332 113.15701 37021 ft 521 kts 62°
2026-04-30 13:26 19.19658 113.32680 37016 ft 520 kts 62°
2026-04-30 13:28 19.27941 113.49621 37020 ft 520 kts 62°
2026-04-30 13:28 19.32917 113.59823 37018 ft 520 kts 62°
2026-04-30 13:29 19.39543 113.73434 37018 ft 520 kts 62°
2026-04-30 13:31 19.47824 113.90490 37019 ft 521 kts 62°
2026-04-30 13:32 19.56078 114.07542 37022 ft 522 kts 62°
2026-04-30 13:33 19.62696 114.21250 37020 ft 523 kts 62°
2026-04-30 13:34 19.67662 114.31559 37020 ft 523 kts 62°
2026-04-30 13:35 19.74287 114.45337 37022 ft 524 kts 62°
2026-04-30 13:36 19.80906 114.59137 37021 ft 525 kts 62°
2026-04-30 13:36 19.85851 114.69470 37020 ft 525 kts 62°
2026-04-30 13:37 19.90805 114.79841 37023 ft 525 kts 62°
2026-04-30 13:38 19.95760 114.90233 37022 ft 525 kts 62°
2026-04-30 13:39 20.02358 115.04103 37023 ft 526 kts 62°
2026-04-30 13:40 20.07304 115.14520 37023 ft 526 kts 62°
2026-04-30 13:40 20.10596 115.21466 37023 ft 526 kts 62°
2026-04-30 13:41 20.13888 115.28421 37021 ft 526 kts 62°
2026-04-30 13:41 20.17158 115.35336 37021 ft 526 kts 62°
2026-04-30 13:42 20.20446 115.42301 37022 ft 527 kts 62°
2026-04-30 13:42 20.25380 115.52765 37025 ft 527 kts 62°
2026-04-30 13:43 20.28672 115.59750 37022 ft 527 kts 62°
2026-04-30 13:43 20.31963 115.66739 37025 ft 528 kts 62°
2026-04-30 13:44 20.35249 115.73732 37025 ft 528 kts 62°
2026-04-30 13:44 20.38537 115.80735 37023 ft 528 kts 62°
2026-04-30 13:45 20.43437 115.91194 37021 ft 528 kts 62°
2026-04-30 13:46 20.46719 115.98208 37025 ft 528 kts 62°
2026-04-30 13:46 20.49993 116.05215 37026 ft 528 kts 62°
2026-04-30 13:47 20.53268 116.12232 37025 ft 528 kts 62°
2026-04-30 13:47 20.56540 116.19252 37019 ft 528 kts 62°
2026-04-30 13:48 20.59808 116.26274 37023 ft 528 kts 62°
2026-04-30 13:48 20.63074 116.33298 37031 ft 528 kts 62°
2026-04-30 13:49 20.66338 116.40330 37018 ft 528 kts 62°
2026-04-30 13:49 20.69597 116.47359 37027 ft 528 kts 62°
2026-04-30 13:50 20.72853 116.54391 37030 ft 528 kts 62°
2026-04-30 13:50 20.77727 116.64934 37027 ft 527 kts 62°
2026-04-30 13:51 20.80971 116.71963 37027 ft 527 kts 61°
2026-04-30 13:51 20.84208 116.78985 37030 ft 527 kts 62°
2026-04-30 13:52 20.87421 116.85964 37031 ft 527 kts 62°
2026-04-30 13:52 20.90652 116.92992 37024 ft 526 kts 62°
2026-04-30 13:53 20.93884 117.00033 37029 ft 526 kts 62°
2026-04-30 13:53 20.96581 117.05915 37029 ft 526 kts 62°
2026-04-30 13:54 21.00328 117.14097 37026 ft 526 kts 62°
2026-04-30 13:54 21.03544 117.21130 37028 ft 526 kts 62°
2026-04-30 13:55 21.06756 117.28163 37029 ft 526 kts 62°
2026-04-30 13:55 21.09424 117.34012 37035 ft 526 kts 62°
2026-04-30 13:56 21.13181 117.42260 37034 ft 527 kts 62°
2026-04-30 13:56 21.15820 117.48148 37037 ft 528 kts 64°
2026-04-30 13:57 21.18174 117.55605 37030 ft 530 kts 75°
2026-04-30 13:57 21.19937 117.63280 37036 ft 531 kts 75°
2026-04-30 13:58 21.22594 117.74810 37027 ft 531 kts 75°
2026-04-30 13:59 21.24409 117.82481 37030 ft 531 kts 75°
2026-04-30 13:59 21.26232 117.90169 37037 ft 531 kts 75°
2026-04-30 14:00 21.28031 117.97789 37032 ft 530 kts 75°
2026-04-30 14:00 21.30735 118.09288 37037 ft 530 kts 75°
2026-04-30 14:01 21.32532 118.16950 37032 ft 530 kts 75°
2026-04-30 14:01 21.34324 118.24609 37035 ft 529 kts 75°
2026-04-30 14:02 21.36112 118.32264 37032 ft 529 kts 75°
2026-04-30 14:02 21.37897 118.39927 37027 ft 529 kts 75°
2026-04-30 14:03 21.39677 118.47583 37035 ft 528 kts 75°
2026-04-30 14:03 21.41450 118.55232 37037 ft 528 kts 75°
2026-04-30 14:04 21.43218 118.62874 37034 ft 528 kts 75°
2026-04-30 14:04 21.44983 118.70521 37031 ft 527 kts 76°
2026-04-30 14:05 21.46731 118.78112 37030 ft 527 kts 76°
2026-04-30 14:05 21.48488 118.85754 37038 ft 527 kts 76°
2026-04-30 14:06 21.51117 118.97229 37028 ft 527 kts 76°
2026-04-30 14:07 21.53742 119.08718 37039 ft 528 kts 76°
2026-04-30 14:08 21.56356 119.20205 37033 ft 528 kts 76°
2026-04-30 14:08 21.58964 119.31698 37032 ft 528 kts 76°
2026-04-30 14:09 21.60700 119.39370 37029 ft 528 kts 76°
2026-04-30 14:10 21.63281 119.50812 37028 ft 528 kts 76°
2026-04-30 14:10 21.65008 119.58490 37033 ft 528 kts 76°
2026-04-30 14:11 21.66730 119.66161 37034 ft 527 kts 77°
2026-04-30 14:11 21.68448 119.73835 37029 ft 528 kts 77°
2026-04-30 14:12 21.70164 119.81514 37025 ft 528 kts 77°
2026-04-30 14:12 21.71829 119.88986 37031 ft 528 kts 77°
2026-04-30 14:13 21.73528 119.96622 37033 ft 528 kts 77°
2026-04-30 14:13 21.75244 120.04350 37023 ft 528 kts 77°
2026-04-30 14:14 21.76937 120.11985 37028 ft 528 kts 77°
2026-04-30 14:14 21.78637 120.19669 37033 ft 528 kts 77°
2026-04-30 14:15 21.80336 120.27365 37034 ft 528 kts 77°
2026-04-30 14:15 21.82028 120.35052 37031 ft 528 kts 77°
2026-04-30 14:16 21.83718 120.42745 37037 ft 528 kts 77°
2026-04-30 14:16 21.85403 120.50432 37033 ft 528 kts 77°
2026-04-30 14:17 21.87084 120.58121 37029 ft 527 kts 77°
2026-04-30 14:17 21.88759 120.65800 37031 ft 527 kts 77°
2026-04-30 14:18 21.90432 120.73488 37030 ft 527 kts 77°
2026-04-30 14:18 21.92921 120.84959 37050 ft 527 kts 77°
2026-04-30 14:19 21.95011 120.96572 37042 ft 526 kts 80°
2026-04-30 14:20 21.96347 121.04324 37038 ft 526 kts 80°
2026-04-30 14:20 21.98708 121.15861 37035 ft 526 kts 69°
2026-04-30 14:21 22.01967 121.22892 37034 ft 524 kts 54°
2026-04-30 14:22 22.08710 121.31869 37038 ft 522 kts 48°
2026-04-30 14:22 22.15609 121.40997 37041 ft 523 kts 49°
2026-04-30 14:23 22.24708 121.53224 37039 ft 524 kts 49°
2026-04-30 14:24 22.31554 121.62434 37036 ft 524 kts 49°
2026-04-30 14:25 22.40677 121.74733 37039 ft 524 kts 49°
2026-04-30 14:26 22.47514 121.83976 37047 ft 524 kts 49°
2026-04-30 14:27 22.54348 121.93232 37050 ft 524 kts 49°
2026-04-30 14:27 22.58893 121.99398 37055 ft 524 kts 49°
2026-04-30 14:28 22.65682 122.08620 37055 ft 524 kts 49°
2026-04-30 14:28 22.70224 122.14799 37058 ft 524 kts 50°
2026-04-30 14:29 22.78561 122.26160 37058 ft 524 kts 50°
2026-04-30 14:31 22.90629 122.42648 37061 ft 524 kts 50°
2026-04-30 14:31 22.97416 122.51946 37061 ft 523 kts 50°
2026-04-30 14:32 23.04157 122.61196 37060 ft 523 kts 50°
2026-04-30 14:33 23.08665 122.67391 37059 ft 523 kts 50°
2026-04-30 14:33 23.15422 122.76692 37060 ft 523 kts 50°
2026-04-30 14:34 23.19930 122.82906 37059 ft 523 kts 50°
2026-04-30 14:34 23.24436 122.89125 37061 ft 524 kts 50°
2026-04-30 14:35 23.31207 122.98485 37061 ft 525 kts 50°
2026-04-30 14:36 23.35514 123.04914 37062 ft 527 kts 54°
2026-04-30 14:36 23.39641 123.11507 37062 ft 527 kts 54°
2026-04-30 14:37 23.43764 123.18120 37066 ft 528 kts 54°
2026-04-30 14:37 23.47910 123.24718 37066 ft 528 kts 54°
2026-04-30 14:38 23.52065 123.31312 37068 ft 528 kts 54°
2026-04-30 14:38 23.56216 123.37906 37071 ft 528 kts 54°
2026-04-30 14:39 23.60366 123.44512 37065 ft 528 kts 54°
2026-04-30 14:39 23.64484 123.51077 37068 ft 527 kts 54°
2026-04-30 14:40 23.70690 123.60988 37068 ft 527 kts 54°
2026-04-30 14:40 23.74833 123.67613 37072 ft 527 kts 54°
2026-04-30 14:41 23.78966 123.74234 37071 ft 528 kts 54°
2026-04-30 14:41 23.83098 123.80860 37068 ft 528 kts 54°
2026-04-30 14:42 23.87232 123.87499 37062 ft 528 kts 54°
2026-04-30 14:42 23.91365 123.94145 37072 ft 529 kts 54°
2026-04-30 14:43 23.95502 124.00802 37065 ft 529 kts 54°
2026-04-30 14:43 23.99735 124.07402 37072 ft 530 kts 53°
2026-04-30 14:44 24.03996 124.13934 37070 ft 530 kts 53°
2026-04-30 14:44 24.08273 124.20517 37066 ft 531 kts 53°
2026-04-30 14:45 24.12536 124.27122 37062 ft 531 kts 53°
2026-04-30 14:45 24.16075 124.32619 37059 ft 532 kts 53°
2026-04-30 14:46 24.20338 124.39250 37057 ft 532 kts 53°
2026-04-30 14:46 24.24602 124.45887 37058 ft 532 kts 53°
2026-04-30 14:47 24.28863 124.52528 37060 ft 532 kts 53°
2026-04-30 14:47 24.33092 124.59128 37065 ft 533 kts 53°
2026-04-30 14:48 24.37354 124.65788 37073 ft 533 kts 53°
2026-04-30 14:48 24.41608 124.72446 37072 ft 533 kts 53°
2026-04-30 14:49 24.45865 124.79116 37072 ft 534 kts 53°
2026-04-30 14:49 24.50120 124.85794 37071 ft 534 kts 54°
2026-04-30 14:50 24.55976 124.94997 37072 ft 534 kts 54°
2026-04-30 14:51 24.62355 125.05045 37060 ft 534 kts 54°
2026-04-30 14:52 24.68728 125.15102 37054 ft 535 kts 54°
2026-04-30 14:52 24.75072 125.25135 37055 ft 535 kts 54°
2026-04-30 14:53 24.81293 125.35334 37057 ft 535 kts 57°
2026-04-30 14:54 24.89074 125.49325 37047 ft 536 kts 57°
2026-04-30 14:55 24.94972 125.59782 37062 ft 536 kts 57°
2026-04-30 14:56 25.02864 125.73750 37059 ft 537 kts 57°
2026-04-30 14:57 25.08757 125.84222 37070 ft 537 kts 57°
2026-04-30 14:58 25.16634 125.98257 37066 ft 538 kts 57°
2026-04-30 14:58 25.22544 126.08814 37065 ft 539 kts 57°
2026-04-30 15:00 25.32387 126.26449 37057 ft 540 kts 57°
2026-04-30 15:01 25.40262 126.40606 37048 ft 541 kts 58°
2026-04-30 15:01 25.46148 126.51215 37051 ft 541 kts 58°
2026-04-30 15:02 25.50074 126.58320 37055 ft 541 kts 58°
2026-04-30 15:03 25.59844 126.76163 37044 ft 542 kts 58°
2026-04-30 15:04 25.69605 126.94040 37044 ft 542 kts 58°
2026-04-30 15:06 25.79337 127.11942 37040 ft 542 kts 58°
2026-04-30 15:07 25.86933 127.25965 37040 ft 542 kts 58°
2026-04-30 15:08 25.94697 127.40322 37038 ft 542 kts 58°
2026-04-30 15:09 26.04269 127.58066 37026 ft 542 kts 58°
2026-04-30 15:10 26.12007 127.72464 37025 ft 542 kts 58°
2026-04-30 15:11 26.21506 127.85327 37038 ft 536 kts 37°
2026-04-30 15:11 26.27238 127.90642 37042 ft 536 kts 36°
2026-04-30 15:13 26.41586 128.03897 37029 ft 537 kts 37°
2026-04-30 15:14 26.61637 128.22744 37022 ft 539 kts 37°
2026-04-30 15:17 26.87446 128.47112 37005 ft 540 kts 37°
2026-04-30 15:19 27.10375 128.68891 37003 ft 541 kts 38°